Location: Street
(51.1247°N, 2.7429°W)
Time: 18:42:21
(UTC+00:00)

N. Korean satellite - Pass Details

Date: 31 October 2020
Orbit: 453 x 503 km, 97.2° (Epoch: 04 December)

Event Time Altitude Azimuth Distance (km) Brightness Sun altitude
Rises 05:11:31 0° 22° (NNE) 2,483 10.4 -17.8°
Reaches altitude 10° 05:13:47 10° 34° (NE) 1,602 9.6 -17.4°
Maximum altitude 05:16:46 28° 95° (E) 894 8.7 -17.0°
Drops below altitude 10° 05:19:45 10° 156° (SSE) 1,591 9.5 -16.5°
Sets 05:21:58 0° 169° (S) 2,462 10.3 -16.1°
